Regional Weather Roundup
Issued by NWS Raleigh/Durham, NC

Home | Current Version | Previous Version | Text Only | Print | Product List | Glossary On
Versions: 1 2 3 4 5 6 7 8 9 10 11 12 13 14 15 16 17 18 19 20 21 22 23 24 25 26 27 28 29 30 31 32 33 34 35 36 37 38 39 40 41 42 43 44 45 46 47 48 49 50
000
ASUS42 KRAH 261810
RWRRAH
NORTH CAROLINA WEATHER ROUNDUP
NATIONAL WEATHER SERVICE RALEIGH NC
200 PM EDT FRI MAY 26 2017

NOTE: "FAIR" INDICATES FEW OR NO CLOUDS BELOW 12,000 FEET WITH NO
SIGNIFICANT WEATHER AND/OR OBSTRUCTIONS TO VISIBILITY.

NCZ001-053-055-056-065-067-261900-
WESTERN NORTH CAROLINA

CITY           SKY/WX    TMP DP  RH WIND       PRES   REMARKS
ASHEVILLE      SUNNY     73  49  42 NW15      30.03F
JEFFERSON      SUNNY     66  46  47 W13G21    30.03S
MORGANTON      SUNNY     79  44  29 W6G16     30.01F
HICKORY        SUNNY     76  52  43 W7        29.96F
RUTHERFORDTON  SUNNY     78  49  36 W3        29.98F
MOUNT AIRY     NOT AVBL
BOONE          SUNNY     66  45  45 NW15G25   30.05S
$$

NCZ021-022-025-041-071-084-088-261900-
CENTRAL NORTH CAROLINA

CITY           SKY/WX    TMP DP  RH WIND       PRES   REMARKS
CHARLOTTE      MOSUNNY   78  55  44 SW7       29.97F
GREENSBORO     PTSUNNY   76  56  49 W14       29.93F
WINSTON-SALEM  MOSUNNY   77  50  38 SW8G16    29.95S
RALEIGH-DURHAM MOSUNNY   79  56  45 W13G23    29.92S
FORT BRAGG     SUNNY     82  51  33 W13       29.91F
FAYETTEVILLE   SUNNY     85  52  32 W16G24    29.91F
BURLINGTON     PTSUNNY   79  55  43 W10       29.92F
LAURINBURG     SUNNY     83  55  38 W13       29.94F
$$

NCZ011-015-027-028-043-044-047-080-103-261900-
NORTHEASTERN NORTH CAROLINA

CITY           SKY/WX    TMP DP  RH WIND       PRES   REMARKS
ROCKY MT-WILSO MOSUNNY   78  54  43 W15G24    29.89F
GREENVILLE     MOSUNNY   81  55  41 NW8G17    29.91F
WASHINGTON     SUNNY     79  55  44 W13       29.88F
ELIZABETH CITY MOSUNNY   79  58  48 W17G23    29.83S
MANTEO         SUNNY     77  56  47 NW10G20   29.85S
CAPE HATTERAS  SUNNY     80  59  48 W12G18    29.88S
$$

NCZ078-087-090-091-093-098-101-261900-
SOUTHEASTERN NORTH CAROLINA

CITY           SKY/WX    TMP DP  RH WIND       PRES   REMARKS
LUMBERTON      SUNNY     82  53  36 W16       29.93S
GOLDSBORO      MOSUNNY   80  55  41 W10G18    29.89S
KINSTON        MOSUNNY   81  52  36 W9G24     29.91S
KENANSVILLE    SUNNY     81  55  41 W13       29.91F
NEW BERN       MOSUNNY   82  57  42 W13G20    29.90F
CHERRY POINT   MOSUNNY   83  55  38 W15G25    29.90S
BEAUFORT       SUNNY     80  64  58 SW18      29.89S
JACKSONVILLE   NOT AVBL
WILMINGTON     SUNNY     82  56  40 W13       29.92S
$$




USA.gov is the U.S. government's official web portal to all federal, state and local government web resources and services.